Location: Wald
(31.7579°N, 86.6655°W)
Time: 12:28:02
(UTC+00:00)

USA 234 - Pass Details

Date: 14 July 2020
Orbit: 1101 x 1106 km, 123.0° (Epoch: 02 August)

Event Time Altitude Azimuth Distance (km) Brightness Sun altitude
Rises 01:14:10 0° 153° (SSE) 3,903 5.6 -4.7°
Reaches altitude 10° 01:16:44 10° 159° (SSE) 2,947 5.1 -5.1°
Maximum altitude 01:23:00 49° 232° (SW) 1,383 4.0 -6.3°
Drops below altitude 10° 01:29:17 10° 307° (NW) 2,958 7.3 -7.5°
Sets 01:31:52 0° 312° (NW) 3,918 8.2 -7.9°
